GFSFLT1_850_temp_021.txt.gz
Temp
18 19 19 19 18 18 17 16 14 14 14 14 14 13 13 13 13 12 12 12 12 11 11 10 10 9 9 9 8 8 8 8
17 17 17 17 17 17 17 16 16 14 14 14 13 13 13 13 12 11 11 11 11 11 9 8 8 8 7 7 7 7 7 7
16 15 16 16 15 16 16 15 14 13 13 13 13 13 12 11 11 10 9 9 9 8 8 8 8 7 7 6 6 6 6 5
15 15 14 14 14 14 14 13 13 13 13 12 12 12 11 11 11 10 10 9 8 8 8 7 6 6 5 5 5 4 4 4
14 14 13 13 12 12 12 12 12 12 11 11 11 10 9 9 8 8 8 8 7 7 6 6 6 4 4 4 3 3 3 3
14 14 13 12 12 12 12 11 11 11 10 10 9 9 8 7 7 7 6 6 5 5 4 3 3 2 2 2 2 3 2 2
15 14 13 13 12 12 11 11 11 10 9 9 9 8 7 7 7 6 6 5 4 3 2 1 1 1 1 1 1 1 1 0
14 13 13 12 12 12 11 11 10 10 9 9 8 7 7 6 6 5 4 3 2 2 1 1 0 0 0 -0 -0 -0 -1 -1
15 14 14 13 12 12 11 11 10 9 9 8 7 7 5 5 4 4 3 2 1 1 1 -0 -1 -1 -1 -1 -2 -2 -2 -2
14 13 12 12 11 11 10 9 9 8 8 7 6 5 4 4 3 3 2 1 1 1 0 -1 -1 -1 -2 -2 -2 -2 -3 -3
12 12 11 11 10 10 9 9 8 8 7 6 5 5 4 3 3 3 2 2 1 0 -1 -1 -2 -2 -2 -2 -3 -3 -3 -3
11 11 10 10 10 9 9 8 8 7 6 6 6 5 4 3 3 3 2 2 1 -1 -1 -2 -2 -2 -2 -3 -3 -3 -3 -4
11 10 9 9 9 8 7 7 7 6 6 5 5 4 3 3 3 2 2 2 0 -1 -2 -2 -2 -2 -3 -3 -3 -3 -3 -4
10 9 9 8 7 7 7 7 6 6 6 5 4 4 3 3 2 2 1 1 -0 -1 -2 -2 -2 -3 -3 -3 -4 -4 -4 -4
8 8 8 7 7 7 7 6 6 6 5 4 4 3 1 1 1 1 -1 -0 -1 -2 -2 -2 -3 -3 -4 -4 -4 -4 -5 -5
7 7 6 7 6 6 6 6 5 5 5 4 4 3 2 0 -0 1 -1 -1 -2 -2 -2 -3 -3 -4 -4 -4 -4 -5 -5 -6
6 6 6 6 6 6 6 5 4 4 3 3 3 2 1 0 -0 -2 -3 -2 -2 -3 -3 -3 -4 -4 -4 -5 -5 -6 -7 -7
6 6 6 6 6 6 5 4 3 3 3 2 2 1 1 -0 -1 -2 -3 -4 -3 -3 -3 -4 -4 -5 -5 -6 -7 -8 -8 -9
6 6 6 6 5 5 4 3 3 2 2 1 1 0 -1 -1 -1 -3 -3 -4 -4 -3 -4 -4 -5 -5 -6 -7 -8 -9 -9 -9

GFSFLT1_850_temp_024.txt.gz
Temp
17 17 17 17 17 16 16 15 15 14 13 13 13 13 13 12 12 11 11 11 10 10 9 9 9 9 8 8 8 7 7 7
15 15 15 15 15 14 14 12 12 12 13 13 12 12 12 12 11 10 10 10 9 9 9 8 8 7 7 7 6 6 6 6
14 15 15 15 13 12 12 12 13 13 13 13 13 12 11 11 10 10 10 9 9 8 8 7 7 6 6 6 6 5 5 4
14 14 14 13 13 13 13 12 12 12 12 11 11 11 11 11 11 10 10 9 8 7 6 5 6 5 5 4 3 3 2 2
15 14 14 14 14 13 14 13 12 12 11 11 11 11 10 10 9 8 7 7 6 5 5 5 4 3 2 1 1 1 1 1
14 14 14 13 13 13 13 13 12 12 11 10 9 9 9 8 7 7 6 6 5 5 4 2 2 1 1 0 -0 0 -0 -1
14 14 13 13 12 12 11 11 11 11 10 10 10 9 8 7 7 6 6 5 4 3 2 2 1 0 -1 -1 -1 -1 -1 -1
14 14 13 13 12 11 11 11 10 9 9 9 8 8 7 6 5 5 5 4 3 2 1 1 1 -1 -1 -2 -2 -2 -2 -2
14 13 12 12 11 11 10 10 10 9 9 8 8 7 7 6 5 5 4 3 2 2 1 1 0 -1 -1 -2 -2 -2 -3 -3
12 11 11 10 10 10 10 9 9 8 8 7 7 6 6 5 5 5 4 3 2 2 2 0 -1 -1 -2 -2 -2 -3 -3 -3
11 11 10 10 10 9 9 8 8 7 7 6 6 6 5 5 4 4 3 3 2 2 1 0 -2 -2 -2 -2 -3 -3 -3 -3
10 10 9 9 9 8 8 7 7 6 6 6 5 5 5 4 3 3 2 2 2 1 0 -1 -2 -2 -2 -3 -3 -3 -4 -4
9 9 9 9 8 7 7 7 6 6 6 5 5 5 4 4 3 2 2 2 1 0 -1 -1 -2 -2 -3 -3 -3 -4 -4 -4
9 9 8 8 7 7 6 6 6 6 5 5 4 3 3 3 2 2 1 -0 -2 -3 -2 -2 -2 -3 -3 -3 -4 -4 -4 -5
8 8 7 6 6 6 6 6 6 5 5 4 3 3 3 2 1 0 -0 -0 -1 -3 -2 -3 -3 -3 -4 -4 -4 -5 -5 -5
7 7 6 6 6 6 6 5 5 5 4 3 3 2 2 1 -0 -1 -1 -1 -2 -3 -4 -4 -3 -4 -4 -5 -5 -5 -6 -6
6 6 6 6 6 5 5 4 4 3 3 2 2 1 1 0 -1 -1 -2 -2 -3 -5 -5 -4 -4 -4 -5 -5 -6 -6 -7 -8
6 6 6 5 5 4 4 3 3 2 2 1 1 1 0 -1 -1 -2 -4 -3 -4 -5 -5 -5 -5 -5 -6 -6 -7 -8 -9 -9
6 5 5 5 4 4 3 2 2 1 1 1 0 -0 -1 -2 -3 -3 -4 -4 -4 -5 -5 -5 -5 -6 -6 -7 -8 -9 -9 -10

GFSFLT1_850_temp_027.txt.gz
Temp
17 18 19 18 16 16 15 14 15 14 14 13 13 13 12 12 12 11 11 11 10 10 9 9 9 8 8 7 7 7 7 6
16 17 17 17 16 16 15 15 14 12 12 12 12 12 11 11 11 10 10 10 9 9 8 8 7 7 6 6 6 6 6 5
13 14 14 15 14 14 14 13 13 12 12 12 11 11 11 11 10 10 10 9 9 8 7 7 6 6 6 5 5 4 3 2
13 13 14 14 13 13 13 13 13 13 12 12 11 11 11 10 10 9 9 8 7 6 6 5 5 4 4 3 2 2 1 1
13 13 13 13 13 13 13 12 13 12 12 12 11 11 11 10 9 8 7 7 6 6 5 4 4 3 3 2 1 0 -0 -1
13 13 13 13 13 12 12 12 11 11 11 10 10 10 9 8 8 7 6 6 6 5 4 4 3 2 2 1 0 -1 -2 -2
13 13 13 12 11 12 11 11 11 10 10 10 9 9 8 7 7 6 6 5 5 4 4 3 2 2 1 -0 -1 -2 -2 -2
12 12 12 11 11 11 10 10 10 10 9 9 8 8 7 6 6 5 5 4 4 4 3 2 2 1 0 -1 -2 -2 -2 -2
11 12 11 11 11 10 10 10 9 9 8 8 7 6 6 6 5 5 4 4 3 3 3 2 1 1 -0 -1 -2 -2 -3 -3
12 11 11 11 10 10 10 9 9 8 7 7 6 6 6 5 5 4 4 3 3 2 2 1 0 -1 -1 -2 -2 -3 -3 -3
11 11 11 10 9 9 9 9 7 7 6 6 6 5 5 4 4 3 3 2 2 2 1 -1 -2 -3 -2 -2 -3 -3 -3 -4
10 9 9 9 9 9 8 7 6 6 6 5 5 4 4 3 3 2 2 2 1 0 -1 -3 -3 -3 -2 -2 -3 -3 -4 -4
9 9 9 8 8 7 6 6 6 6 6 5 5 4 3 3 3 2 1 1 0 -0 -1 -1 -3 -4 -3 -3 -3 -4 -4 -5
8 8 7 7 7 6 6 6 6 6 5 5 4 3 3 2 1 1 1 -0 -1 -1 -1 -2 -3 -4 -4 -4 -4 -4 -5 -5
7 7 7 6 6 6 6 5 5 5 4 3 3 3 2 1 1 0 -0 -1 -2 -2 -2 -3 -5 -5 -5 -4 -4 -5 -6 -6
7 7 6 6 6 5 5 5 4 4 3 3 2 1 1 0 -0 -1 -1 -2 -4 -3 -3 -5 -5 -5 -5 -5 -5 -6 -6 -7
6 6 6 6 6 5 5 4 4 3 3 2 1 0 -0 -0 -1 -1 -2 -3 -4 -4 -5 -5 -5 -5 -5 -5 -6 -7 -8 -8
6 6 6 5 5 4 4 3 3 2 1 1 0 -0 -1 -1 -2 -3 -3 -4 -5 -5 -5 -5 -5 -6 -6 -6 -7 -8 -9 -9
5 5 5 4 4 3 3 3 2 1 0 -0 -1 -1 -2 -2 -3 -4 -4 -4 -5 -5 -5 -5 -6 -6 -7 -7 -8 -9 -9 -10

GFSFLT1_850_temp_030.txt.gz
Temp
16 17 17 17 17 15 13 12 12 11 11 11 12 12 12 12 11 11 10 10 10 10 9 9 8 8 8 7 7 7 6 6
16 16 16 15 13 13 12 12 10 11 10 11 12 12 11 11 10 10 10 10 9 9 8 7 7 6 6 6 6 6 5 5
13 13 12 12 13 12 13 12 12 11 12 12 12 12 12 11 11 10 10 9 8 8 7 6 6 6 5 5 5 4 3 3
13 13 14 13 13 13 13 13 13 13 12 12 12 11 11 11 10 9 9 7 6 6 6 5 5 4 4 4 3 3 2 2
14 14 13 14 13 13 13 12 12 12 11 11 11 10 10 10 9 8 7 6 6 5 5 5 4 4 3 3 2 1 -1 -1
13 13 13 13 12 12 12 12 11 11 10 10 10 9 9 8 7 6 6 5 5 4 4 3 3 3 2 2 1 0 -1 -1
12 12 12 13 12 12 11 11 10 10 10 9 9 8 7 6 6 5 5 5 4 4 3 3 2 2 2 1 1 -0 -2 -2
12 12 12 11 10 10 10 10 10 9 9 8 7 7 6 6 6 5 4 4 3 3 2 2 2 1 0 -1 -1 -1 -2 -3
11 11 10 10 10 10 10 9 9 9 8 7 6 6 6 5 4 4 3 3 3 2 2 2 1 0 -1 -2 -2 -2 -2 -3
11 11 10 10 10 9 9 9 9 8 7 6 6 5 5 4 4 3 3 2 2 2 1 1 -1 -2 -3 -3 -4 -3 -3 -3
10 9 10 9 9 9 9 9 7 6 6 5 5 5 4 4 3 3 2 2 1 1 0 -0 -0 -1 -2 -3 -4 -4 -3 -4
9 9 9 9 9 8 8 8 7 6 6 6 5 5 4 3 3 2 1 1 0 0 -0 -1 -1 -2 -3 -4 -4 -4 -4 -4
9 9 9 8 8 8 8 7 6 6 6 5 4 3 3 2 1 1 0 -0 -0 -1 -2 -2 -2 -3 -4 -4 -5 -5 -4 -5
8 8 8 8 7 7 6 6 6 5 4 4 3 3 2 1 0 0 -0 -1 -1 -1 -3 -3 -3 -3 -4 -5 -5 -5 -5 -5
8 8 7 7 6 5 6 5 5 4 4 3 2 2 1 0 -0 -0 -1 -1 -1 -2 -4 -4 -4 -4 -5 -5 -5 -5 -5 -6
8 7 6 6 6 6 5 5 4 4 3 2 1 1 0 -0 -1 -1 -1 -2 -2 -4 -5 -4 -5 -5 -5 -5 -5 -6 -6 -6
7 6 6 6 6 5 5 4 3 3 2 1 1 0 -1 -1 -2 -2 -3 -3 -4 -5 -5 -5 -5 -5 -6 -6 -6 -6 -7 -7
7 6 6 6 5 4 4 3 2 2 1 1 -0 -1 -1 -2 -3 -3 -4 -4 -4 -5 -5 -5 -5 -6 -6 -6 -7 -7 -7 -8
6 6 5 5 4 3 3 2 1 1 1 -0 -1 -2 -2 -3 -4 -4 -5 -5 -5 -5 -5 -6 -6 -6 -7 -7 -7 -8 -8 -9

GFSFLT1_850_temp_036.txt.gz
Temp
13 13 14 14 13 11 12 12 11 10 11 10 10 10 10 10 10 10 10 9 9 8 8 7 7 5 5 5 5 4 4 3
13 15 15 13 12 12 13 13 12 11 12 9 11 10 10 10 10 10 9 8 8 8 7 6 5 4 5 4 4 4 3 3
13 13 14 12 11 11 12 11 11 11 12 11 9 11 11 10 10 9 8 8 7 7 6 4 4 4 3 3 2 3 3 3
13 12 12 11 11 12 12 12 12 12 11 11 11 10 10 10 9 8 8 7 6 5 5 5 4 3 3 3 2 2 2 2
13 12 11 11 12 12 11 11 11 11 11 9 9 10 9 8 7 6 6 6 6 6 5 4 3 3 2 2 2 1 1 1
13 13 13 12 11 11 11 10 10 10 10 9 9 9 8 7 6 6 5 5 5 4 3 3 3 2 2 1 0 0 0 -0
13 13 12 11 10 9 9 9 9 10 10 9 9 8 7 7 6 6 6 5 4 4 3 2 2 1 1 1 0 -0 -1 -1
13 12 12 11 10 10 9 9 9 9 9 8 7 7 6 6 6 5 4 4 4 3 2 2 1 1 1 0 -0 -1 -1 -2
13 12 12 11 10 10 10 10 8 8 8 7 6 7 6 5 5 4 4 3 3 2 1 1 1 0 0 -0 -1 -1 -1 -2
13 12 11 11 10 9 9 9 8 8 8 8 7 6 6 5 4 4 2 2 1 1 1 0 0 -0 -0 -1 -1 -1 -1 -2
13 12 10 10 9 9 9 8 8 7 7 6 6 5 5 4 4 2 1 1 1 0 -0 -1 -1 -1 -1 -1 -2 -2 -2 -3
12 11 10 9 8 8 9 8 7 7 6 5 5 5 4 3 2 1 1 0 -0 -1 -1 -2 -2 -2 -2 -3 -3 -3 -3 -4
11 10 9 8 8 7 8 7 6 6 5 5 4 4 3 2 1 0 -0 -1 -1 -2 -2 -2 -2 -3 -3 -4 -4 -4 -4 -4
10 9 9 8 7 8 7 6 6 5 4 4 3 2 2 1 0 -0 -1 -2 -2 -3 -3 -3 -4 -4 -4 -5 -5 -5 -5 -5
10 9 9 7 7 7 7 6 5 4 4 4 3 2 2 0 -0 -1 -2 -2 -3 -3 -4 -4 -4 -5 -5 -5 -5 -5 -5 -6
10 9 8 7 7 6 6 4 4 4 4 3 2 1 1 -0 -1 -2 -2 -2 -3 -4 -4 -5 -5 -5 -5 -5 -6 -6 -6 -7
9 9 8 7 6 6 5 4 4 4 3 2 1 1 0 -1 -2 -2 -3 -3 -3 -4 -4 -5 -5 -6 -5 -5 -6 -6 -7 -7
9 8 7 6 6 5 5 4 4 3 3 2 1 0 -1 -2 -2 -3 -3 -3 -4 -4 -5 -5 -5 -6 -6 -6 -6 -7 -8 -8
8 8 6 6 5 5 4 3 3 3 2 0 -0 -1 -2 -2 -3 -3 -4 -4 -4 -5 -5 -6 -6 -6 -6 -6 -7 -8 -9 -9

GFSFLT1_850_temp_042.txt.gz
Temp
19 18 18 17 15 14 13 11 12 13 13 13 12 12 12 12 12 11 10 9 10 9 8 8 7 7 7 6 5 4 4 4
19 18 18 17 15 15 13 11 10 12 13 12 12 12 12 11 11 10 9 9 9 8 7 7 6 6 6 5 5 4 4 4
18 17 17 17 15 13 12 12 11 11 11 11 12 11 11 11 10 9 7 8 7 7 7 6 6 6 6 5 5 4 4 3
17 17 16 17 15 13 13 11 11 11 10 10 11 10 10 9 8 8 7 8 7 6 6 6 5 5 4 4 4 4 3 3
18 17 16 15 14 13 12 11 11 11 11 11 10 10 10 9 9 9 8 8 7 6 6 6 5 4 4 4 3 3 3 3
19 17 16 14 13 12 12 12 12 12 12 11 11 11 11 10 10 9 8 7 7 6 6 5 5 4 3 3 3 2 2 2
19 17 15 14 13 13 13 13 12 12 11 11 11 11 10 10 9 8 8 8 7 6 6 5 5 4 3 2 2 2 1 1
18 17 15 14 13 13 13 13 13 11 11 10 10 10 9 9 8 8 7 7 6 6 5 5 4 2 2 2 1 1 1 1
17 16 15 14 14 13 13 13 12 11 10 10 10 9 8 8 7 7 6 6 5 4 4 3 2 2 1 1 0 0 1 1
17 16 15 14 13 12 12 12 12 11 10 9 9 8 8 7 7 6 5 4 4 3 3 2 1 1 0 -0 -0 -0 -0 -1
17 16 15 14 13 12 12 12 11 10 10 9 8 7 6 6 6 4 4 3 2 2 1 1 0 -0 -0 -0 -1 -1 -1 -2
17 16 15 14 13 13 12 12 11 9 8 7 7 6 6 5 4 4 3 2 2 1 1 0 -0 -1 -1 -1 -2 -2 -2 -3
17 16 15 14 14 12 11 11 10 9 7 6 6 6 5 4 4 3 3 2 1 1 0 -0 -1 -1 -2 -2 -3 -3 -3 -3
18 17 16 14 14 12 11 10 9 8 6 6 5 5 5 4 4 3 2 1 1 0 -0 -1 -1 -2 -2 -3 -3 -4 -4 -4
18 17 16 14 13 12 11 9 8 7 6 5 5 4 5 4 3 3 2 1 0 -1 -1 -1 -1 -2 -3 -3 -3 -4 -4 -4
19 18 16 14 13 12 11 9 7 6 6 6 5 5 4 4 3 2 1 0 -1 -1 -1 -1 -2 -2 -3 -3 -3 -4 -4 -5
17 17 15 14 13 11 10 8 6 6 6 5 5 4 4 2 2 1 0 -0 -1 -1 -1 -2 -2 -3 -4 -4 -4 -4 -5 -5
17 16 15 14 13 11 9 8 7 6 5 4 3 3 2 1 1 0 -0 -0 -1 -2 -2 -2 -2 -3 -4 -4 -4 -5 -5 -6
16 15 14 13 12 10 9 7 6 5 4 3 2 2 1 1 0 -0 -0 -1 -1 -2 -2 -3 -3 -4 -4 -5 -5 -5 -6 -6

GFSFLT1_850_temp_045.txt.gz
Temp
18 18 17 16 15 15 14 13 12 12 13 13 13 13 13 12 12 12 12 11 11 11 10 9 8 8 7 7 6 5 5 4
18 18 17 15 14 15 14 14 13 13 13 13 13 12 12 12 12 11 11 11 10 9 8 8 7 7 7 6 5 5 5 4
18 18 17 16 15 15 14 13 13 13 13 12 11 12 11 11 10 11 11 11 9 8 7 7 7 7 7 6 5 5 4 4
18 18 17 16 15 14 16 14 13 12 11 11 11 11 10 10 10 11 11 9 8 8 7 7 7 6 6 5 5 4 3 3
18 18 17 16 14 14 14 13 12 12 11 10 11 11 12 12 11 10 9 8 8 7 7 7 6 5 5 4 4 3 3 2
18 17 17 16 15 13 12 12 11 11 10 10 11 11 11 10 10 9 8 8 7 7 6 6 5 5 5 4 4 4 3 2
18 17 16 16 15 14 13 12 12 11 11 11 11 11 10 10 9 9 8 7 7 6 6 5 5 5 4 4 4 3 2 1
18 17 16 15 15 14 13 12 12 11 11 11 11 10 10 9 9 8 8 7 7 6 6 6 6 5 4 3 2 1 1 0
18 17 16 15 15 13 13 12 12 12 11 11 11 10 10 9 9 8 8 7 7 6 6 6 5 4 3 2 1 0 -0 -0
17 16 16 15 14 14 13 13 13 12 11 11 10 10 9 9 8 8 7 6 5 5 5 4 3 2 1 0 -0 -0 -1 -1
17 16 15 14 14 13 13 13 12 12 11 10 10 9 9 8 7 7 6 5 4 4 3 3 2 0 0 -0 -1 -1 -1 -2
17 16 15 14 14 13 13 12 12 12 11 10 9 9 8 7 7 6 3 3 4 3 2 2 1 -0 -0 -1 -1 -2 -3 -3
17 16 15 15 14 13 13 12 12 11 10 9 8 7 7 6 5 3 2 3 3 2 2 1 -0 -1 -1 -1 -2 -2 -3 -4
17 17 16 15 14 13 12 12 11 10 9 8 7 7 6 5 3 3 3 3 2 2 1 0 -1 -1 -1 -1 -2 -3 -4 -4
18 17 16 15 14 13 13 12 11 10 8 8 7 6 4 4 3 3 3 2 2 1 1 -0 -1 -1 -2 -2 -3 -4 -4 -4
18 17 16 15 14 13 12 11 10 9 8 7 6 5 4 3 3 1 2 2 1 0 -0 -1 -1 -2 -2 -2 -3 -3 -4 -4
18 17 16 15 13 12 11 10 10 8 7 6 6 5 4 3 1 2 1 1 0 -1 -1 -1 -1 -2 -2 -3 -3 -4 -4 -5
16 15 15 14 13 12 11 10 8 7 6 6 5 4 2 0 1 1 1 0 -0 -1 -1 -2 -2 -2 -3 -3 -4 -4 -5 -5
15 15 15 14 13 11 10 8 7 6 5 4 3 1 0 1 0 -1 -0 -0 -1 -1 -1 -2 -2 -3 -3 -4 -4 -5 -5 -6

GFSFLT1_850_temp_051.txt.gz
Temp
14 14 14 14 13 13 13 13 13 12 12 12 12 12 12 11 11 11 11 11 11 10 9 9 9 9 9 8 8 7 6 6
14 14 13 13 13 13 13 13 13 13 12 12 12 12 11 11 11 12 11 11 10 10 9 10 9 9 8 8 7 6 6 5
14 14 13 13 13 13 12 12 13 13 13 12 12 12 12 11 11 11 10 10 10 10 10 10 9 9 8 7 6 6 6 5
14 14 14 14 14 14 14 14 14 13 13 12 12 11 11 11 11 11 10 10 10 10 9 8 8 7 7 6 6 6 5 5
16 15 15 15 15 15 15 14 14 13 13 12 12 12 12 12 12 11 10 10 9 9 8 7 7 7 6 6 5 5 4 4
16 16 17 16 15 14 14 13 13 13 12 12 12 11 12 12 12 11 10 9 8 7 7 7 7 7 6 6 5 4 4 3
16 17 15 15 15 15 14 14 13 12 12 12 12 11 12 11 11 10 9 8 8 7 7 6 5 5 6 5 4 4 4 3
15 15 15 15 15 15 14 14 14 14 12 11 11 11 11 11 10 10 9 8 7 7 6 5 4 4 4 3 3 3 3 2
17 16 16 16 16 15 15 14 14 14 13 11 10 11 11 10 10 10 9 9 8 7 5 5 3 3 2 2 3 2 1 1
17 17 17 17 16 16 16 15 15 13 12 11 11 11 10 10 10 9 9 8 6 5 4 3 3 2 2 2 2 1 0 -0
17 17 17 17 16 16 16 15 15 13 12 11 11 10 10 10 10 9 8 6 6 4 4 3 1 1 1 2 1 -0 -0 -0
17 18 17 17 16 16 16 15 14 13 12 11 11 10 10 10 9 8 7 5 4 5 4 1 1 2 2 1 1 0 -0 -1
19 18 17 16 16 16 15 14 14 13 13 12 12 10 10 9 8 7 6 5 4 2 1 1 1 1 2 1 0 -0 -1 -2
18 18 18 17 17 16 15 14 13 13 13 12 10 10 9 8 7 6 5 3 2 2 1 1 1 2 2 1 -0 -1 -2 -2
18 18 18 17 16 16 16 14 13 12 12 10 9 9 8 7 5 5 4 2 2 0 0 1 1 1 1 0 -1 -2 -2 -3
16 16 16 16 15 15 15 13 12 12 10 10 9 7 6 6 5 3 2 1 0 0 0 -0 1 0 -0 -1 -2 -2 -3 -3
16 16 16 15 14 13 14 11 10 10 9 8 7 6 6 4 3 3 2 -0 -1 -1 -0 -1 -0 -1 -1 -2 -2 -2 -3 -3
16 15 15 14 13 12 11 10 9 9 8 6 6 5 4 3 2 1 -1 -1 0 -0 -1 -1 -1 -1 -2 -2 -3 -3 -3 -4
14 14 14 13 12 12 11 9 8 7 6 5 5 3 2 0 -0 -1 -0 -0 -1 -1 -1 -1 -1 -2 -2 -3 -3 -3 -4 -4

GFSFLT1_850_temp_057.txt.gz
Temp
13 13 13 13 13 12 12 12 12 12 12 12 12 11 11 11 11 11 11 11 12 11 10 10 9 9 9 9 9 8 8 7
14 14 13 13 13 13 12 13 13 12 12 12 11 11 12 11 11 12 12 11 11 11 10 10 9 9 8 8 8 7 7 6
14 14 14 13 14 14 13 13 13 13 13 13 12 12 12 11 11 11 12 10 10 10 10 9 9 8 8 7 7 6 5 5
14 14 15 14 14 14 14 14 13 12 12 13 13 12 11 11 11 11 11 10 10 10 9 9 8 8 7 7 6 6 5 5
16 15 15 15 15 15 15 14 13 13 12 12 12 12 12 12 12 12 11 10 10 10 9 8 8 7 7 7 6 5 5 4
17 17 16 16 15 15 15 14 14 13 13 12 12 12 12 12 12 11 9 9 10 9 8 7 7 7 7 6 5 5 4 5
17 17 16 17 16 16 16 15 15 14 13 13 12 12 12 12 11 10 9 9 9 8 8 7 7 7 6 5 5 4 3 3
18 18 17 17 17 16 16 16 15 14 14 13 12 12 11 11 10 10 9 9 8 8 8 7 7 6 5 4 3 2 2 2
18 19 19 18 18 17 17 17 16 15 14 13 13 12 12 11 10 10 9 9 9 8 8 7 6 6 5 4 4 2 1 1
17 17 18 18 18 18 18 17 16 15 15 14 14 13 12 11 10 9 9 9 9 8 8 7 6 5 5 4 4 1 1 1
16 16 16 17 17 17 16 16 15 15 14 14 14 12 11 10 9 9 9 8 8 8 7 7 5 4 3 3 1 1 0 1
18 17 16 16 16 16 16 15 15 14 14 14 13 12 11 10 10 9 8 8 8 7 6 4 2 3 2 1 0 1 1 0
19 18 17 17 17 17 16 15 15 14 14 13 13 11 11 11 11 11 9 8 8 6 5 3 3 3 2 1 1 0 -0 -0
19 19 18 18 17 17 16 15 15 14 14 14 14 13 12 12 11 9 8 6 7 5 3 3 2 1 1 1 -0 -0 -1 -1
17 17 17 17 16 15 14 15 15 14 14 13 12 12 10 9 8 8 9 6 5 3 3 2 2 1 0 -1 -1 -1 -1 -1
15 15 14 14 14 14 13 13 12 12 11 10 9 8 8 7 7 7 5 4 3 2 2 1 0 0 0 -2 -2 -1 -1 -2
13 13 13 13 12 12 11 11 10 9 9 8 8 8 7 6 5 4 3 2 1 0 0 -0 -0 -0 -1 -1 -2 -1 -1 -2
13 13 13 12 12 11 11 10 9 9 8 7 7 6 5 4 3 2 2 0 -1 -1 -0 -0 -1 -1 -1 -1 -1 -2 -2 -2
12 12 13 12 11 11 10 8 7 6 6 5 4 3 3 2 0 -0 -1 -1 -0 -0 -0 -1 -1 -1 -1 -1 -1 -2 -2 -2

GFSFLT1_850_temp_060.txt.gz
Temp
13 13 12 12 11 11 11 11 10 12 12 13 12 12 11 10 11 11 12 11 12 12 11 11 10 10 9 9 9 9 7 7
13 13 13 13 12 12 12 11 11 10 10 12 11 11 10 10 10 11 11 12 12 12 11 10 10 9 9 9 9 8 6 8
14 13 13 13 13 12 12 12 11 12 11 11 11 11 11 10 10 12 12 11 12 12 10 10 9 8 9 8 8 6 6 7
15 14 13 12 13 12 12 12 12 11 11 11 10 10 10 11 10 12 12 12 12 11 10 10 9 9 8 8 7 7 6 5
17 15 14 13 13 13 12 12 12 11 11 11 11 11 11 11 10 12 12 12 11 10 10 9 9 8 7 8 8 6 6 5
18 17 16 14 14 13 12 12 12 11 11 11 11 12 12 11 10 11 12 11 10 10 9 9 8 8 8 7 7 6 6 4
18 18 17 16 14 13 14 14 12 12 13 13 12 11 11 10 11 11 11 10 10 10 9 8 8 7 8 7 7 6 5 5
18 18 17 17 16 14 14 14 13 13 13 14 13 12 12 12 12 11 11 10 10 10 9 8 7 7 7 6 6 5 5 5
19 18 17 17 16 14 15 16 15 13 13 14 13 14 14 13 13 11 10 10 10 9 8 7 7 7 6 6 5 4 4 3
19 19 18 17 16 15 15 16 14 13 13 11 13 15 14 13 12 12 10 10 9 8 7 7 7 6 5 4 4 3 2 2
18 18 18 17 16 15 14 14 14 13 12 11 13 13 14 13 12 10 10 9 9 8 8 7 6 6 5 4 4 2 1 1
17 16 16 16 15 14 13 13 13 13 12 11 12 12 12 11 10 10 10 10 9 9 8 7 7 5 3 2 2 1 0 -0
17 17 16 15 14 14 13 13 12 12 11 10 12 11 11 10 10 10 10 9 9 6 6 6 5 4 2 2 1 1 0 -1
17 16 16 15 14 14 13 12 12 11 11 11 10 10 10 10 9 9 9 9 7 7 5 5 3 2 2 1 1 0 -1 -1
18 17 15 14 13 13 14 14 13 13 12 11 11 10 10 9 9 9 8 7 7 6 4 2 2 1 0 0 0 -1 -1 -1
16 15 15 14 12 11 12 12 11 10 10 10 9 9 9 8 8 7 6 6 5 3 2 2 1 1 0 -0 -0 -1 -1 -1
12 13 12 11 10 9 11 10 9 9 9 9 8 8 7 7 6 5 5 4 3 2 1 1 1 1 -0 -0 -1 -2 -2 -1
10 10 9 9 10 10 10 9 8 8 8 7 6 6 6 5 4 3 3 2 1 1 1 1 0 -0 -1 -1 -1 -2 -2 -2
8 8 8 9 9 9 8 7 7 7 7 6 5 4 4 3 2 2 1 1 1 0 -0 -0 -1 -2 -1 -1 -2 -2 -3 -2

GFSFLT1_850_temp_063.txt.gz
Temp
15 14 14 13 13 12 12 11 11 11 11 11 11 11 11 12 11 12 11 11 11 11 11 11 11 9 10 9 9 9 9 9
16 15 14 14 13 12 12 12 11 12 12 12 12 12 12 12 12 12 11 11 11 11 10 10 11 9 9 8 8 8 8 8
16 15 14 14 13 13 13 13 12 12 12 13 13 13 13 12 12 12 10 10 11 12 10 9 11 9 8 8 8 8 8 7
17 16 15 14 14 14 14 14 13 13 13 13 13 13 13 12 12 12 11 10 11 11 10 9 10 10 9 9 7 8 8 7
18 17 15 15 15 14 14 14 14 14 13 14 13 13 13 13 12 12 11 10 11 11 10 9 9 9 9 8 7 7 7 8
20 18 17 16 15 15 14 14 14 14 13 13 13 13 13 13 12 12 11 10 10 10 9 9 9 8 8 8 7 6 7 7
21 20 19 17 16 15 15 14 14 14 14 13 13 13 12 13 13 12 10 10 10 11 10 10 9 9 8 7 6 6 6 7
21 21 20 18 17 16 15 14 15 14 14 13 12 12 12 13 13 10 10 10 10 10 10 10 10 8 7 5 5 5 6 5
21 21 20 19 18 17 16 15 15 14 13 13 13 12 12 12 12 13 11 12 10 9 8 9 8 6 5 5 5 6 6 4
22 22 20 20 19 18 16 16 15 15 14 13 13 12 12 12 11 12 12 11 11 10 9 9 8 7 4 5 5 5 4 4
22 21 21 20 20 19 17 16 15 15 15 13 12 12 11 11 11 11 11 12 10 10 9 8 8 6 4 5 5 4 2 3
20 20 21 21 20 19 17 16 15 15 15 14 12 11 12 11 10 10 9 10 10 9 8 8 6 5 5 4 3 2 2 2
20 19 19 19 19 19 17 16 15 15 15 14 13 11 11 10 10 9 9 9 9 8 8 7 6 6 5 5 1 1 1 1
21 20 19 18 17 17 16 15 15 15 14 13 11 11 11 9 9 9 9 9 9 8 6 6 5 5 4 2 1 1 1 1
21 20 19 18 17 16 15 13 13 12 12 11 10 10 9 9 9 8 8 8 7 6 6 5 4 3 2 1 1 1 1 -0
20 20 19 17 15 12 11 11 11 10 10 10 9 9 9 8 8 8 8 7 6 5 4 3 2 1 1 1 1 0 -0 -1
17 18 17 16 13 10 10 10 10 10 10 9 9 8 8 7 7 6 6 6 5 4 3 2 1 2 1 0 -0 -1 -1 -1
15 15 14 12 11 9 8 8 9 9 8 8 7 6 6 5 4 5 5 3 3 2 2 1 1 1 0 -0 -1 -1 -2 -1
12 12 11 10 9 8 7 7 6 5 5 4 4 3 4 3 4 3 3 2 1 1 1 0 -0 -0 -1 -1 -1 -1 -1 -2

GFSFLT1_850_temp_066.txt.gz
Temp
14 11 10 10 10 10 10 10 10 10 11 11 11 11 12 12 12 11 11 12 11 11 10 10 11 10 10 10 9 9 9 9
14 13 13 12 11 11 11 11 11 11 11 11 11 11 11 11 12 11 11 11 12 11 12 11 11 10 9 10 9 9 9 9
15 15 14 13 12 12 12 12 12 11 11 11 12 11 12 12 12 12 12 11 12 11 11 10 10 10 9 9 9 9 9 8
16 15 14 14 13 12 12 12 12 12 12 12 12 12 12 12 12 12 12 12 12 10 11 10 10 11 10 9 9 10 9 8
17 16 14 14 14 13 13 13 12 12 13 13 13 13 13 13 12 12 12 12 11 10 10 10 9 10 10 9 9 9 8 8
18 17 16 15 14 14 13 14 14 13 13 14 14 14 13 13 13 13 12 11 11 10 9 9 9 9 9 9 7 8 8 8
20 18 17 16 15 15 14 14 14 14 14 14 14 13 13 13 13 13 12 12 12 11 10 10 12 11 9 9 7 6 7 7
21 20 18 17 16 15 15 14 14 15 15 14 14 14 13 13 13 13 12 12 13 14 12 11 10 10 9 8 6 7 5 5
22 21 19 18 17 16 15 15 14 15 15 14 14 14 13 13 13 13 13 13 13 13 11 10 9 10 9 7 6 5 5 5
22 22 21 20 18 17 16 15 15 15 15 15 14 15 13 14 12 12 13 13 12 11 10 9 9 9 8 7 6 5 5 5
23 22 21 21 20 18 17 16 16 15 15 15 14 14 13 13 12 12 13 13 10 9 9 9 9 8 7 6 5 5 5 4
21 22 22 21 20 19 18 17 16 16 15 15 14 13 13 14 14 14 12 10 10 9 9 9 8 8 7 6 5 5 5 3
21 20 21 21 21 20 19 17 17 16 16 15 15 14 14 14 12 11 10 10 9 9 9 8 8 7 6 5 5 4 3 2
21 20 19 19 20 20 19 18 17 16 16 15 14 15 12 11 10 10 9 9 8 8 8 7 6 6 5 4 4 2 1 1
22 21 20 19 18 18 17 17 16 16 15 14 14 12 11 10 9 9 9 8 8 8 7 6 5 5 4 3 2 1 1 1
21 21 20 18 17 17 16 15 15 14 13 12 11 10 10 9 9 8 8 8 7 7 6 5 4 3 3 2 1 1 1 0
19 20 19 17 15 15 13 12 12 11 11 10 10 9 9 8 8 8 7 6 6 5 5 4 3 2 1 1 1 -0 -1 -1
17 18 16 15 13 13 11 10 10 10 9 9 8 8 8 7 6 5 5 5 4 4 3 2 2 1 1 0 0 0 -0 -1
16 15 13 11 10 10 8 8 8 8 7 7 6 6 5 4 4 4 4 3 3 2 1 1 1 1 -0 -1 -0 -1 -1 -1

GFSFLT1_850_temp_069.txt.gz
Temp
12 11 10 10 9 9 10 10 9 9 10 10 10 10 11 11 12 12 12 12 12 12 11 11 11 11 10 10 10 10 10 9
12 13 10 9 9 9 11 10 10 10 10 10 11 11 11 12 11 12 12 12 13 12 11 11 10 11 10 10 10 9 9 9
11 12 11 10 11 10 11 11 10 11 11 11 10 11 11 11 11 11 12 13 12 12 12 11 11 11 10 10 10 9 9 9
12 13 12 12 12 12 11 11 10 10 11 10 11 11 11 12 12 12 12 12 11 11 11 11 11 11 11 10 10 9 9 9
13 13 13 12 12 12 12 11 11 11 11 11 12 11 12 12 12 12 12 12 12 11 12 12 12 11 11 10 9 9 8 8
14 14 14 14 12 12 12 11 11 11 11 12 12 12 12 12 12 12 12 12 12 12 11 11 11 10 9 10 10 9 8 7
16 15 15 14 14 13 13 12 12 12 13 12 12 13 13 12 12 12 12 12 12 12 12 12 12 11 11 10 9 8 8 7
16 15 15 14 14 14 14 13 12 13 13 13 13 13 13 13 13 13 13 12 12 12 12 12 11 11 9 9 8 9 9 7
18 17 16 16 15 14 14 14 13 13 13 13 14 14 14 13 13 13 13 13 13 13 12 11 10 9 9 9 8 8 7 6
19 18 18 16 16 15 15 14 14 14 14 14 14 14 14 14 13 13 13 13 13 12 12 11 10 9 9 9 8 8 7 6
21 19 18 18 18 17 16 16 15 15 14 14 14 14 14 14 14 14 13 13 12 11 10 10 10 9 8 8 8 7 6 5
21 21 20 20 19 18 18 17 16 16 15 15 14 14 14 14 13 12 12 12 11 12 10 9 9 8 9 8 8 7 5 5
22 21 20 19 19 19 18 18 17 17 16 15 15 14 14 13 12 11 11 9 10 9 9 9 9 8 8 8 7 5 5 4
21 21 20 20 19 18 17 16 15 14 15 14 15 15 13 13 11 10 10 10 10 9 8 8 8 8 8 6 5 4 4 3
21 21 21 19 19 18 18 17 15 16 13 12 15 16 14 12 10 10 9 9 9 8 8 8 8 7 6 5 4 4 3 2
21 20 19 19 19 18 16 17 18 16 16 14 16 12 11 10 9 9 8 9 8 8 8 7 6 5 4 4 4 3 2 1
21 19 19 18 19 19 16 12 12 13 14 14 11 10 10 9 9 9 8 8 8 7 6 5 5 4 3 3 2 1 1 0
20 18 18 18 17 17 17 14 11 10 10 10 10 10 9 9 8 8 7 7 6 6 5 4 3 3 2 1 1 0 -0 -1
18 18 17 16 16 16 15 13 12 10 10 9 9 9 8 8 6 6 5 5 5 5 3 2 2 1 1 0 0 -0 -1 -1

GFSFLT1_850_temp_072.txt.gz
Temp
12 10 10 9 9 9 9 9 9 9 9 9 10 10 11 11 11 10 11 11 12 13 13 13 12 11 11 11 11 11 10 10
13 11 10 10 9 9 9 9 9 8 9 10 10 11 11 10 10 11 12 12 13 13 13 12 11 11 11 11 11 10 10 10
12 11 11 10 9 9 9 9 9 9 10 11 10 11 10 11 11 12 12 13 13 12 12 12 12 12 11 11 10 10 10 9
12 11 11 11 10 9 10 9 9 9 10 10 10 10 11 11 12 12 12 12 12 12 12 12 13 12 11 10 10 10 10 9
13 12 12 12 12 11 10 10 10 10 11 11 11 11 11 11 12 12 12 12 12 12 12 12 12 11 11 11 10 10 9 9
14 13 14 14 12 11 11 11 11 11 11 11 11 11 11 12 12 12 12 12 12 12 12 12 11 11 11 11 11 10 9 9
15 15 14 14 13 12 11 11 11 11 11 11 11 11 11 11 12 12 12 12 12 12 11 11 11 11 11 11 11 10 9 9
14 14 13 13 13 12 12 12 11 12 11 11 11 11 12 12 13 13 13 13 12 12 12 12 11 11 11 10 9 9 9 8
15 15 15 15 14 13 13 12 12 13 13 12 12 12 12 12 13 13 13 13 13 12 12 12 12 11 11 10 9 9 9 8
16 16 16 16 15 15 15 15 14 14 13 13 13 12 12 13 12 12 13 13 13 12 12 12 12 11 10 9 9 9 9 8
16 16 17 17 17 17 16 15 15 16 15 14 13 13 13 13 13 13 13 13 13 13 12 11 11 11 10 9 9 9 8 7
16 16 17 18 17 16 16 16 16 15 15 14 13 14 13 14 13 13 12 12 11 11 10 10 10 10 9 9 9 8 7 7
20 19 18 17 16 16 15 16 16 13 12 12 12 12 12 13 13 11 11 11 11 10 10 9 10 9 9 8 8 8 7 6
20 20 20 19 17 16 15 15 13 12 12 13 13 12 12 12 11 11 12 12 11 10 9 9 10 9 8 8 8 7 6 5
22 20 20 20 19 18 16 16 14 13 13 15 16 13 12 13 12 13 11 11 11 10 9 9 8 8 8 7 7 6 5 4
21 20 20 19 19 19 18 17 15 14 14 16 16 14 14 13 14 13 10 10 10 9 8 8 8 8 7 6 5 4 4 3
20 20 20 19 19 18 18 17 16 14 14 14 14 12 10 10 10 10 9 9 8 8 8 7 7 6 5 5 4 3 2 2
20 20 20 19 19 18 17 16 16 16 14 13 11 10 9 9 9 9 8 8 8 7 7 6 5 5 4 3 2 2 1 1
20 21 19 19 18 16 14 14 14 13 12 10 10 9 9 8 8 8 8 7 7 6 5 5 4 3 2 2 2 1 0 0

GFSFLT1_850_temp_078.txt.gz
Temp
11 10 10 9 9 9 9 9 9 8 8 8 8 9 9 9 10 10 11 11 12 12 12 11 11 11 10 11 11 12 11 10
10 10 9 9 9 9 9 9 9 8 8 8 8 8 9 9 9 10 11 11 12 11 11 11 11 11 11 11 11 10 11 10
11 10 10 9 9 8 9 9 9 9 8 8 9 9 9 9 10 10 10 11 11 11 11 11 11 11 11 11 11 11 11 10
12 11 10 9 9 9 9 9 9 9 8 9 8 9 9 9 9 10 10 11 11 11 11 11 11 11 11 11 11 11 11 10
14 14 13 12 11 10 9 9 9 9 8 9 9 9 9 10 10 11 12 11 11 11 11 11 10 10 11 11 11 11 11 10
14 15 15 14 12 11 10 10 9 9 9 9 9 9 10 11 11 11 11 11 11 11 11 11 11 11 11 11 11 11 11 10
14 15 15 14 13 11 11 10 9 9 9 9 9 9 10 11 11 11 11 11 11 11 11 11 11 11 11 11 11 10 10 10
15 15 14 14 15 14 12 11 10 9 9 9 9 10 10 10 11 11 11 11 11 11 11 11 12 12 11 11 11 10 10 10
17 16 15 15 15 15 15 14 12 11 10 10 10 10 10 10 10 11 11 12 12 12 12 12 12 12 12 12 11 11 11 10
17 17 16 16 15 15 15 15 14 14 13 11 11 10 10 10 10 11 11 11 11 11 11 12 12 11 11 11 11 11 11 10
17 17 17 17 16 15 15 14 14 14 13 13 11 10 10 10 11 11 11 11 12 12 12 12 12 11 11 10 10 10 10 10
17 18 18 17 16 15 15 15 14 14 13 12 12 11 11 12 12 12 13 12 12 12 12 12 11 11 11 11 9 10 9 9
19 18 17 16 16 16 15 14 14 13 12 12 13 13 13 13 13 13 12 12 13 13 11 11 11 11 11 10 9 10 10 9
19 18 18 17 17 16 16 14 14 13 12 12 12 12 13 14 13 12 12 12 12 12 11 11 10 10 10 11 9 10 10 9
20 19 21 20 19 19 17 15 14 13 13 12 12 12 12 12 12 12 12 12 11 10 11 11 11 9 10 9 9 9 8 9
21 21 21 21 21 20 19 17 16 14 13 12 12 12 12 12 12 12 11 11 11 11 10 11 11 10 10 9 9 8 8 8
21 21 21 21 21 21 20 19 18 16 14 13 12 12 12 12 11 11 10 10 10 10 10 10 9 10 9 9 8 8 7 6
21 21 21 21 21 20 20 19 17 16 14 13 13 12 12 11 10 10 10 10 9 9 9 9 9 9 8 8 8 7 6 5
21 21 21 20 20 20 19 19 17 16 15 13 13 12 12 11 10 10 10 10 10 9 9 8 8 8 8 7 7 5 5 4